Flag for U.S.A. Weather past 2 weeks in Jacksonville, Florida, U.S.A.

Now
59 °F

Partly sunny.


Feels Like: 57 °F
Forecast: 52 / 67 °F
Wind: 9 mph from North

Location: Jacksonville Naval Air Station

Current Time: Dec 20, 2014 at 9:08:19 AM

Latest Report: Dec 20, 2014 at 7:53 AM


Visibility: 10 mi

Pressure: 30.11 "Hg

Humidity: 81%

Dew point: 53 °F

Location of JacksonvilleLocation

Historic Weather in Jacksonville — Graph

°F

Jacksonville temperature yesterday

Maximum temperature yesterday: 71 °F (at 2:53 PM)
Minimum temperature yesterday: 51 °F (at 3:53 AM)
Average temperature yesterday: 61 °F

Past Weeks' High & Low Weather Summary

 TemperatureHumidityPressure
High78 °F (Dec 6, 3:53 PM)94% (Dec 6, 2:53 AM)30.33 "Hg (Dec 6, 2:53 AM)
Low40 °F (Dec 13, 7:53 AM)21% (Dec 19, 3:53 PM)29.99 "Hg (Dec 9, 2:53 PM)
Average57 °F63%30.13 "Hg
* Reported Dec 5 7:53 AM — Dec 20 7:53 AM, Jacksonville, Weather by CustomWeather, © 2014

Note: Actual official high and low records may vary slightly from our data, if they occured in-between our weather recording intervals... More about our weather records

Advertising

Jacksonville weather history for previous 24 hours

 ConditionsComfort  
Time TempWeatherWind HumidityBarometerVisibility
7:53 AM
Dec 20
59 °FPartly sunny.9 mph81%30.11 "Hg10 mi
6:53 AM59 °FPassing clouds.6 mph78%30.10 "Hg10 mi
5:53 AM59 °FPassing clouds.8 mph72%30.09 "Hg10 mi
4:53 AM60 °FPassing clouds.5 mph62%30.07 "Hg10 mi
3:53 AM59 °FPassing clouds.6 mph69%30.08 "Hg10 mi
2:53 AM59 °FPassing clouds.8 mph75%30.09 "Hg10 mi
1:53 AM59 °FPassing clouds.9 mph75%30.10 "Hg10 mi
12:53 AM60 °FPartly cloudy.5 mph75%30.09 "Hg10 mi
11:53 PM
Dec 19
60 °FPartly cloudy.No wind75%30.10 "Hg10 mi
10:53 PM61 °FOvercast.6 mph75%30.10 "Hg10 mi
9:53 PM61 °FPassing clouds.5 mph72%30.11 "Hg10 mi
8:53 PM61 °FPassing clouds.5 mph70%30.09 "Hg10 mi
7:53 PM62 °FPassing clouds.8 mph65%30.08 "Hg10 mi
6:53 PM62 °FPassing clouds.7 mph62%30.08 "Hg10 mi
5:53 PM65 °FPassing clouds.7 mph49%30.07 "Hg10 mi
4:53 PM70 °FPartly sunny.3 mph23%30.07 "Hg10 mi
3:53 PM71 °FScattered clouds.5 mph21%30.07 "Hg10 mi
2:53 PM71 °FPartly sunny.8 mph28%30.08 "Hg10 mi
1:53 PM70 °FPartly sunny.5 mph28%30.07 "Hg10 mi
12:53 PM70 °FPartly sunny.No wind27%30.10 "Hg10 mi
11:53 AM69 °FBroken clouds.5 mph31%30.13 "Hg10 mi
10:53 AM64 °FBroken clouds.5 mph40%30.14 "Hg10 mi
9:53 AM58 °FPartly sunny.3 mph56%30.15 "Hg10 mi
Weather by CustomWeather, © 2014

See weather overviewHow to use our weather pages